Location: Lafig�re
(44.4503°N, 4.0357°E)
Time: 02:42:14
(UTC+00:00)

Transit 4A - Pass Details

Date: 30 January 2021
Orbit: 866 x 978 km, 66.8° (Epoch: 02 March)

Event Time Altitude Azimuth Distance (km) Brightness Sun altitude
Rises 01:39:36 0° 330° (NNW) 3,628 - -55.6°
Reaches altitude 10° 01:42:15 10° 335° (NNW) 2,664 - -55.3°
Maximum altitude 01:48:19 54° 52° (NE) 1,106 - -54.5°
Drops below altitude 10° 01:54:10 10° 130° (SE) 2,572 - -53.7°
Sets 01:56:41 0° 135° (SE) 3,493 - -53.3°
